Find EO-1

NORAD ID: 26619 Int'l Des: 2000-075 Owner: GSFC Country: US operational
LEOCIRCULARRETROGRADESSO

リアルタイム位置

3D地球を読み込み中...

EO-1について

説明を読み込み中...

次回通過

Passes for default location (London). Set your location on the main map for personalized predictions.

高度履歴

Loading altitude history...

軌道要素

1 26619U 00075A 26131.83020080 .00000388 00000-0 74304-4 0 9991
2 26619 98.1150 88.9244 0007740 239.0029 121.0416 14.69150241641254
Epoch: May 11, 2026 • Age: 7 hours

現在のステータス

高度 664.2 km
速度 7.53 km/s
衛星直下点 12.64°N, 7.2°W
打ち上げ日 Nov 21, 2000
運用期間 25.4 years
タイプ other

技術仕様

分類 Payload
質量 588.00 kg
乾燥質量 566.00 kg
総質量 588.00 kg
長さ 0.70 m
直径 1.30 m
スパン 5.00 m
形状 Hex Cyl + Pan
製造者 SWALES
バスタイプ ATK-A200
フェーズステータス In Orbit
所有者/国 GSFC/US

Most Searched